[[{"header":{"parameterUnit":"m.s-1","parameterCategory":1,"la1":30.2992,"la2":30.254,"lo1":-89.0895,"lo2":-89.0443,"dy":0.0025,"dx":0.0025,"nx":19,"ny":19,"refTime":"2026-05-23T09:00:00:Z","depth":0,"parameterNumber":2,"parameterNumberName":"U-component_of_WINDS"},"data":[0,0,0,-3.4522,-3.4524,-3.4571,-3.4571,-3.4656,-3.4657,0,0,0,0,0,0,0,0,0,0,0,-3.4524,-3.4525,-3.4522,-3.4524,-3.4571,-3.4571,-3.4656,-3.4657,0,0,0,0,0,0,0,0,0,0,0,-3.4523,-3.4524,-3.4526,-3.4524,-3.4571,-3.4571,-3.4655,-3.4611,0,0,0,0,0,0,0,0,0,0,-3.4561,-3.4577,-3.4524,-3.4526,-3.4524,-3.4571,-3.4571,-3.4609,-3.4614,-3.4645,0,-3.4677,0,-3.4668,-3.4664,-3.4664,0,0,0,-3.4513,-3.4573,-3.4572,-3.4526,-3.4525,-3.4571,-3.4547,-3.4611,-3.4617,-3.4652,-3.4678,-3.4681,-3.467,-3.4665,-3.4665,-3.4882,-3.4884,0,0,-3.451,-3.4541,-3.4568,-3.4577,-3.4571,-3.4545,-3.4548,-3.4614,-3.4645,-3.4678,-3.4682,-3.4671,-3.4666,-3.4666,-3.4881,-3.4883,0,0,0,-3.451,-3.4539,-3.4536,-3.4574,-3.458,-3.4547,-3.455,-3.4642,-3.4638,-3.4683,-3.4672,-3.4666,-3.4667,-3.4879,-3.4882,-3.4988,0,0,0,-3.4508,-3.4539,-3.4535,-3.4555,-3.458,-3.4612,-3.4577,-3.4633,-3.464,-3.4672,-3.4666,-3.4669,-3.4877,-3.488,-3.4981,-3.5033,0,0,0,-3.4515,-3.454,-3.4552,-3.4556,-3.4577,-3.461,-3.461,-3.4634,-3.4634,-3.4665,-3.4669,-3.4876,-3.488,-3.4975,-3.5023,-3.5099,0,0,0,-3.4532,-3.4647,-3.4554,-3.4677,-3.4577,-3.4675,-3.4609,-3.468,-3.4719,-3.4667,-3.4878,-3.4881,-3.4973,-3.5017,-3.5093,-3.5168,-3.5202,0,0,-3.4694,-3.4667,-3.4737,-3.4656,-3.4778,-3.4666,-3.4803,-3.481,-3.4784,-3.4851,-3.4856,-3.4983,-3.5023,-3.5097,-3.5383,-3.541,0,0,0,-3.4799,-3.485,-3.4875,-3.4913,-3.492,-3.493,-3.4912,-3.4914,-3.4969,-3.4825,-3.503,-3.5052,-3.5095,-3.5129,-3.5153,-3.5187,-3.4899,-3.4898,-3.4898,-3.5073,-3.5033,-3.5146,-3.5111,-3.5149,-3.5128,-3.5154,-3.5153,-3.5104,-3.5152,-3.5172,-3.535,-3.5392,-3.5409,-3.5446,-3.5209,-3.5209,-3.5209,-3.521,-3.5306,-3.5371,-3.53,-3.5384,-3.5341,-3.541,-3.5394,-3.5356,-3.5414,-3.5333,-3.5368,-3.5283,-3.5441,-3.547,-3.5217,-3.5216,-3.5215,-3.5214,-3.5214,-3.5482,-3.5506,-3.5505,-3.5554,-3.5596,-3.5556,-3.5615,-3.5574,-3.5536,-3.5571,-3.5587,-3.5585,-3.5578,-3.5581,-3.5582,-3.5582,-3.5583,-3.5583,-3.5584,-3.5665,-3.566,-3.5715,-3.573,-3.5747,-3.5765,-3.5743,-3.5759,-3.5766,-3.5732,-3.5732,-3.5677,-3.5463,-3.5411,-3.5593,-3.5591,-3.559,-3.5589,-3.5589,-3.5917,-3.5853,-3.5937,-3.5954,-3.5967,-3.6011,-3.5956,-3.5992,-3.5999,-3.6029,-3.5966,-3.5814,-3.5785,-3.5766,-3.5722,-3.5974,-3.5974,-3.5974,-3.5974,-3.6066,-3.6046,-3.6121,-3.6151,-3.6176,-3.6134,-3.623,-3.6213,-3.6186,-3.6187,-3.6145,-3.6083,-3.6065,-3.6046,-3.6021,-3.5979,-3.6291,-3.6291,-3.6292,-3.6219,-3.6199,-3.6288,-3.6259,-3.6265,-3.6271,-3.6359,-3.6397,-3.6352,-3.6304,-3.6188,-3.6174,-3.6074,-3.6043,-3.5994,-3.5956,-3.5879,0,0]},{"header":{"parameterUnit":"m.s-1","parameterCategory":1,"la1":30.2992,"la2":30.254,"lo1":-89.0895,"lo2":-89.0443,"dy":0.0025,"dx":0.0025,"nx":19,"ny":19,"refTime":"2026-05-23T09:00:00:Z","depth":0,"parameterNumber":3,"parameterNumberName":"V-component_of_WINDS"},"data":[0,0,0,0.6587,0.6587,0.6563,0.6563,0.6544,0.6544,0,0,0,0,0,0,0,0,0,0,0,0.6601,0.6601,0.6587,0.6586,0.6563,0.6563,0.6544,0.6544,0,0,0,0,0,0,0,0,0,0,0,0.6601,0.6601,0.6601,0.6586,0.6563,0.6563,0.6544,0.6558,0,0,0,0,0,0,0,0,0,0,0.6578,0.6598,0.6601,0.6601,0.6586,0.6563,0.6563,0.6558,0.6557,0.656,0,0.6564,0,0.6554,0.6544,0.6544,0,0,0,0.6581,0.6599,0.6587,0.6601,0.6586,0.6563,0.6572,0.6557,0.6556,0.6558,0.6564,0.6563,0.6554,0.6544,0.6544,0.6578,0.6578,0,0,0.6582,0.66,0.6588,0.6586,0.6591,0.6573,0.6572,0.6556,0.6564,0.6564,0.6562,0.6553,0.6544,0.6544,0.6577,0.6578,0,0,0,0.659,0.6601,0.6589,0.6587,0.6582,0.6572,0.6571,0.6564,0.6559,0.6562,0.6553,0.6544,0.6543,0.6577,0.6578,0.6616,0,0,0,0.659,0.6605,0.659,0.66,0.6583,0.6573,0.6579,0.656,0.6558,0.6553,0.6544,0.6543,0.6577,0.6577,0.6614,0.6631,0,0,0,0.66,0.6606,0.6606,0.6601,0.6592,0.6573,0.6566,0.6559,0.6553,0.6544,0.6543,0.6576,0.6577,0.6612,0.6628,0.6646,0,0,0,0.6615,0.6639,0.6606,0.663,0.6592,0.6597,0.6566,0.6569,0.6565,0.6543,0.6577,0.6578,0.6612,0.6626,0.6645,0.6665,0.6676,0,0,0.6655,0.6645,0.6657,0.6627,0.6643,0.6599,0.6619,0.6599,0.6582,0.658,0.6581,0.6615,0.6628,0.6646,0.6725,0.6733,0,0,0,0.6676,0.6686,0.6686,0.6684,0.667,0.6659,0.6634,0.6626,0.6624,0.6585,0.6625,0.6632,0.6642,0.6651,0.6659,0.6666,0.6582,0.6582,0.6582,0.6759,0.6736,0.6756,0.673,0.6729,0.6703,0.67,0.6685,0.6662,0.6672,0.6671,0.6722,0.6734,0.6739,0.6747,0.668,0.668,0.668,0.668,0.6817,0.6827,0.6796,0.6804,0.678,0.6786,0.6762,0.6745,0.6747,0.672,0.6728,0.6701,0.6749,0.6755,0.6683,0.6682,0.6682,0.6682,0.6682,0.687,0.6871,0.6862,0.6857,0.6856,0.6829,0.6833,0.681,0.6788,0.6795,0.6793,0.6792,0.679,0.6796,0.6796,0.6796,0.6796,0.6796,0.6797,0.6929,0.6917,0.6924,0.6911,0.6907,0.6899,0.6874,0.6869,0.6858,0.6841,0.6841,0.6817,0.6757,0.6743,0.6799,0.6799,0.6798,0.6798,0.6798,0.6998,0.6978,0.6989,0.6985,0.6968,0.6969,0.694,0.6933,0.6925,0.6928,0.6903,0.6862,0.6849,0.6843,0.6832,0.6907,0.6907,0.6907,0.6907,0.7043,0.7034,0.704,0.7035,0.7028,0.7003,0.7015,0.6996,0.6973,0.6967,0.6952,0.6934,0.693,0.692,0.6912,0.6901,0.6992,0.6992,0.6992,0.7085,0.7074,0.7089,0.7067,0.7052,0.704,0.7051,0.7048,0.7017,0.6995,0.6962,0.6958,0.6929,0.6921,0.69,0.6889,0.6868,0,0]}]]